Tracking 25709 objects as of 23-May-2022
HD Live streaming from Space Station
objects crossing your sky now

SPACEBEE-38

Track SPACEBEE-38 now!
10-day predictions


NORAD ID: 46937
Int'l Code: 2020-085J
Perigee: 448.6 km
Apogee: 465.7 km
Inclination: 97.4 °
Period: 93.6 minutes
Semi major axis: 6828 km
RCS: Unknown
Launch date: November 20, 2020
Source: United States (US)
Launch site: Rocket Lab Launch Complex (RLLC)
aabbcc
Your satellite tracking list
Your tracking list is empty




NASA's NSSDC Master Catalog

Two Line Element Set (TLE):
1 46937U 20085J   22143.45241861  .00091439  00000-0  23648-2 0  9998
2 46937  97.4275 283.1878 0012522 174.7552 185.3864 15.38667004 83753
Source of the keplerian elements: AFSPC